| time (UTC) | temp C | wind direction | speed KPH | gust KPH | rain 1hr cm | rain 24hr cm | rain mn cm | humidity % | barometer mb |
| 20260509075501 | 12 | 203 | 3.2 | 9.7 | 0.00 | 0.00 | 0.00 | 79 | 1014.5 |
| 20260509074953 | 12 | 203 | 3.2 | 17.7 | 0.00 | 0.00 | 0.00 | 77 | 1015.0 |
| 20260509074441 | 13 | 203 | 3.2 | 17.7 | 0.00 | 0.00 | 0.00 | 76 | 1014.8 |
| 20260509073931 | 12 | 180 | 11.3 | 14.5 | 0.00 | 0.00 | 0.00 | 75 | 1014.8 |
| 20260509073421 | 12 | 203 | 6.4 | 9.7 | 0.00 | 0.00 | 0.00 | 79 | 1014.6 |
| 20260509072910 | 12 | 203 | 3.2 | 6.4 | 0.00 | 0.00 | 0.00 | 80 | 1014.3 |
| 20260509072400 | 12 | 203 | 0.0 | 6.4 | 0.00 | 0.00 | 0.00 | 81 | 1014.1 |
| 20260509070320 | 12 | 158 | 0.0 | 0.0 | 0.00 | 0.00 | 0.00 | 81 | 1013.9 |
| 20260509065810 | 12 | 135 | 0.0 | 0.0 | 0.00 | 0.00 | 0.00 | 81 | 1014.0 |
| 20260509064750 | 12 | 135 | 0.0 | 0.0 | 0.00 | 0.00 | 0.00 | 80 | 1013.5 |
| 20260509064239 | 12 | 135 | 0.0 | 0.0 | 0.00 | 0.00 | 0.00 | 79 | 1013.5 |
| 20260509063730 | 12 | 135 | 0.0 | 6.4 | 0.00 | 0.00 | 0.00 | 78 | 1013.7 |
| 20260509063219 | 12 | 135 | 0.0 | 6.4 | 0.00 | 0.00 | 0.00 | 76 | 1013.5 |
| 20260509062709 | 13 | 180 | 3.2 | 6.4 | 0.00 | 0.00 | 0.00 | 74 | 1013.4 |
| 20260509061649 | 12 | 225 | 0.0 | 6.4 | 0.00 | 0.00 | 0.00 | 77 | 1013.2 |
| 20260509061139 | 12 | 180 | 3.2 | 6.4 | 0.00 | 0.00 | 0.00 | 77 | 1013.3 |
| 20260509060118 | 12 | 180 | 6.4 | 9.7 | 0.00 | 0.00 | 0.00 | 76 | 1013.2 |
| 20260509055608 | 12 | 180 | 4.8 | 9.7 | 0.00 | 0.00 | 0.00 | 76 | 1012.9 |
| 20260509055056 | 12 | 180 | 6.4 | 0.0 | 0.00 | 0.00 | 0.00 | 76 | 1013.3 |
| 20260509053522 | 12 | 158 | 0.0 | 3.2 | 0.00 | 0.00 | 0.00 | 75 | 1012.6 |
| 20260509053013 | 12 | 180 | 0.0 | 0.0 | 0.00 | 0.00 | 0.00 | 75 | 1012.6 |
| 20260509052502 | 12 | 158 | 0.0 | 0.0 | 0.00 | 0.00 | 0.00 | 76 | 1012.2 |
| 20260509051953 | 12 | 158 | 0.0 | 0.0 | 0.00 | 0.00 | 0.00 | 75 | 1012.1 |
| 20260509051442 | 13 | 135 | 0.0 | 0.0 | 0.00 | 0.00 | 0.00 | 73 | 1012.1 |
| 20260509050933 | 13 | 135 | 0.0 | 0.0 | 0.00 | 0.00 | 0.00 | 73 | 1011.8 |
| 20260509050422 | 13 | 135 | 0.0 | 3.2 | 0.00 | 0.00 | 0.00 | 73 | 1012.2 |
| 20260509045912 | 13 | 135 | 0.0 | 3.2 | 0.00 | 0.00 | 0.00 | 73 | 1012.2 |
| 20260509045402 | 13 | 135 | 0.0 | 3.2 | 0.00 | 0.00 | 0.00 | 73 | 1011.9 |
| 20260509044851 | 13 | 158 | 0.0 | 3.2 | 0.00 | 0.00 | 0.00 | 72 | 1011.7 |
| 20260509044342 | 13 | 180 | 0.0 | 6.4 | 0.00 | 0.00 | 0.00 | 73 | 1011.8 |
| 20260509043831 | 12 | 158 | 1.6 | 6.4 | 0.00 | 0.00 | 0.00 | 74 | 1011.8 |
| 20260509043321 | 12 | 135 | 0.0 | 3.2 | 0.00 | 0.00 | 0.00 | 75 | 1011.6 |
| 20260509042812 | 12 | 180 | 0.0 | 3.2 | 0.00 | 0.00 | 0.00 | 75 | 1011.5 |
| 20260509040221 | 12 | 180 | 0.0 | 6.4 | 0.00 | 0.00 | 0.00 | 76 | 1010.6 |
| 20260509035711 | 12 | 203 | 1.6 | 6.4 | 0.00 | 0.00 | 0.00 | 75 | 1010.5 |
| 20260509035200 | 12 | 158 | 1.6 | 6.4 | 0.00 | 0.00 | 0.00 | 75 | 1010.7 |
| 20260509034650 | 12 | 135 | 1.6 | 6.4 | 0.00 | 0.00 | 0.00 | 76 | 1010.4 |
| 20260509033630 | 12 | 180 | 0.0 | 6.4 | 0.00 | 0.00 | 0.00 | 77 | 1010.3 |
| 20260509033119 | 12 | 135 | 1.6 | 6.4 | 0.00 | 0.00 | 0.00 | 77 | 1010.2 |
| 20260509032609 | 12 | 203 | 0.0 | 3.2 | 0.00 | 0.00 | 0.00 | 77 | 1010.1 |
| 20260509032100 | 12 | 180 | 0.0 | 3.2 | 0.00 | 0.00 | 0.00 | 76 | 1009.8 |
| 20260509031549 | 12 | 158 | 0.0 | 3.2 | 0.00 | 0.00 | 0.00 | 77 | 1009.8 |
| 20260509031040 | 11 | 203 | 0.0 | 0.0 | 0.00 | 0.00 | 0.00 | 78 | 1010.0 |
| 20260509030529 | 11 | 158 | 0.0 | 0.0 | 0.00 | 0.00 | 0.00 | 79 | 1009.6 |
| 20260509030026 | 11 | 180 | 0.0 | 0.0 | 0.00 | 0.00 | 0.00 | 79 | 1009.7 |
| 20260509025509 | 11 | 203 | 0.0 | 3.2 | 0.00 | 0.00 | 0.00 | 79 | 1009.6 |
| 20260509024959 | 11 | 180 | 0.0 | 3.2 | 0.00 | 0.00 | 0.00 | 79 | 1009.3 |
| 20260509024448 | 11 | 158 | 0.0 | 0.0 | 0.00 | 0.00 | 0.00 | 79 | 1009.0 |
| 20260509023941 | 11 | 158 | 0.0 | 0.0 | 0.00 | 0.00 | 0.00 | 79 | 1009.0 |
| 20260509023429 | 11 | 158 | 0.0 | 0.0 | 0.00 | 0.00 | 0.00 | 80 | 1008.9 |
| 20260509022918 | 11 | 158 | 0.0 | 0.0 | 0.00 | 0.00 | 0.00 | 80 | 1008.9 |
| 20260509022408 | 11 | 135 | 0.0 | 0.0 | 0.00 | 0.00 | 0.00 | 80 | 1008.4 |
| 20260509021859 | 11 | 158 | 0.0 | 0.0 | 0.00 | 0.00 | 0.00 | 80 | 1008.3 |
| 20260509020838 | 10 | 135 | 0.0 | 0.0 | 0.00 | 0.00 | 0.00 | 83 | 1008.3 |
| 20260509015818 | 10 | 135 | 0.0 | 0.0 | 0.00 | 0.00 | 0.00 | 85 | 1007.9 |
| 20260509014757 | 10 | 135 | 0.0 | 0.0 | 0.00 | 0.00 | 0.00 | 86 | 1007.8 |
| 20260509014247 | 9 | 135 | 0.0 | 0.0 | 0.00 | 0.00 | 0.00 | 87 | 1007.7 |
| 20260509013738 | 9 | 135 | 0.0 | 0.0 | 0.00 | 0.00 | 0.00 | 88 | 1007.5 |
| 20260509013228 | 9 | 135 | 0.0 | 0.0 | 0.00 | 0.00 | 0.00 | 88 | 1007.7 |
| 20260509012207 | 10 | 158 | 0.0 | 0.0 | 0.00 | 0.00 | 0.00 | 86 | 1007.3 |
| 20260509011147 | 10 | 135 | 0.0 | 0.0 | 0.00 | 0.00 | 0.00 | 83 | 1007.3 |
| 20260509010636 | 10 | 203 | 0.0 | 0.0 | 0.00 | 0.00 | 0.00 | 83 | 1007.0 |
| 20260509010127 | 10 | 203 | 0.0 | 0.0 | 0.00 | 0.00 | 0.00 | 83 | 1007.2 |
| 20260509005106 | 10 | 158 | 0.0 | 0.0 | 0.00 | 0.00 | 0.00 | 82 | 1006.5 |
| 20260509004557 | 10 | 135 | 0.0 | 0.0 | 0.00 | 0.00 | 0.00 | 83 | 1006.4 |
| 20260509003536 | 10 | 135 | 0.0 | 0.0 | 0.00 | 0.00 | 0.00 | 83 | 1006.2 |
| 20260509003025 | 10 | 113 | 0.0 | 0.0 | 0.00 | 0.00 | 0.00 | 83 | 1006.6 |
| 20260509002516 | 11 | 135 | 0.0 | 3.2 | 0.00 | 0.00 | 0.00 | 80 | 1006.4 |
| 20260509002007 | 11 | 203 | 1.6 | 3.2 | 0.00 | 0.00 | 0.00 | 79 | 1006.2 |
| 20260509001455 | 11 | 180 | 0.0 | 3.2 | 0.00 | 0.00 | 0.00 | 79 | 1006.3 |
| 20260509000945 | 11 | 158 | 0.0 | 3.2 | 0.00 | 0.00 | 0.00 | 80 | 1006.2 |
| 20260509000435 | 11 | 180 | 0.0 | 3.2 | 0.00 | 0.00 | 0.00 | 77 | 1006.3 |
| 20260508235926 | 11 | 203 | 0.0 | 3.2 | 0.00 | 0.00 | 0.00 | 76 | 1005.9 |
| 20260508235415 | 11 | 203 | 0.0 | 3.2 | 0.00 | 0.00 | 0.00 | 74 | 1006.0 |
| 20260508234905 | 11 | 225 | 0.0 | 0.0 | 0.00 | 0.00 | 0.00 | 73 | 1005.9 |
| 20260508233845 | 11 | 225 | 0.0 | 0.0 | 0.00 | 0.00 | 0.00 | 74 | 1006.0 |
| 20260508233335 | 11 | 225 | 0.0 | 0.0 | 0.00 | 0.00 | 0.00 | 72 | 1005.9 |
| 20260508232824 | 11 | 225 | 0.0 | 0.0 | 0.00 | 0.00 | 0.00 | 72 | 1005.5 |
| 20260508232315 | 12 | 225 | 0.0 | 0.0 | 0.00 | 0.00 | 0.00 | 70 | 1005.6 |
| 20260508231804 | 12 | 225 | 0.0 | 0.0 | 0.00 | 0.00 | 0.00 | 69 | 1005.4 |
| 20260508231253 | 12 | 225 | 0.0 | 0.0 | 0.00 | 0.00 | 0.00 | 68 | 1005.4 |
| 20260508230744 | 12 | 225 | 0.0 | 0.0 | 0.00 | 0.00 | 0.00 | 69 | 1005.3 |
| 20260508230235 | 12 | 225 | 0.0 | 0.0 | 0.00 | 0.00 | 0.00 | 69 | 1005.4 |
| 20260508225724 | 13 | 225 | 0.0 | 0.0 | 0.00 | 0.00 | 0.00 | 67 | 1005.3 |
| 20260508225213 | 13 | 248 | 0.0 | 0.0 | 0.00 | 0.00 | 0.00 | 64 | 1005.4 |
| 20260508224704 | 13 | 225 | 0.0 | 0.0 | 0.00 | 0.00 | 0.00 | 62 | 1005.2 |
| 20260508224154 | 14 | 248 | 0.0 | 0.0 | 0.00 | 0.00 | 0.00 | 61 | 1005.4 |
| 20260508223643 | 13 | 225 | 0.0 | 0.0 | 0.00 | 0.00 | 0.00 | 62 | 1005.3 |
| 20260508223134 | 13 | 248 | 0.0 | 0.0 | 0.00 | 0.00 | 0.00 | 62 | 1005.0 |
| 20260508222623 | 13 | 225 | 0.0 | 0.0 | 0.00 | 0.00 | 0.00 | 62 | 1005.1 |
| 20260508222113 | 13 | 270 | 0.0 | 0.0 | 0.00 | 0.00 | 0.00 | 63 | 1005.0 |
| 20260508221602 | 13 | 270 | 0.0 | 0.0 | 0.00 | 0.00 | 0.00 | 63 | 1005.1 |
| 20260508221053 | 13 | 293 | 0.0 | 0.0 | 0.00 | 0.00 | 0.00 | 64 | 1004.8 |
| 20260508220033 | 13 | 293 | 0.0 | 0.0 | 0.00 | 0.00 | 0.00 | 64 | 1004.8 |
| 20260508215522 | 13 | 0 | 0.0 | 0.0 | 0.00 | 0.00 | 0.00 | 61 | 1004.6 |
| 20260508215013 | 13 | 0 | 0.0 | 0.0 | 0.00 | 0.00 | 0.00 | 62 | 1004.6 |
| 20260508213953 | 13 | 0 | 0.0 | 3.2 | 0.00 | 0.00 | 0.00 | 61 | 1004.5 |
| 20260508213442 | 13 | 0 | 1.6 | 6.4 | 0.00 | 0.00 | 0.00 | 59 | 1004.7 |
| 20260508212421 | 15 | 338 | 3.2 | 6.4 | 0.00 | 0.00 | 0.00 | 56 | 1004.4 |
| 20260508211912 | 15 | 0 | 4.8 | 9.7 | 0.00 | 0.00 | 0.00 | 54 | 1004.7 |
| 20260508211401 | 15 | 338 | 6.4 | 11.3 | 0.00 | 0.00 | 0.00 | 51 | 1004.7 |
| 20260508210851 | 16 | 0 | 6.4 | 14.5 | 0.00 | 0.00 | 0.00 | 50 | 1004.6 |
| 20260508210341 | 16 | 0 | 6.4 | 14.5 | 0.00 | 0.00 | 0.00 | 49 | 1004.7 |
| 20260508205831 | 16 | 338 | 9.7 | 14.5 | 0.00 | 0.00 | 0.00 | 48 | 1004.8 |
| 20260508205321 | 16 | 0 | 8.0 | 12.9 | 0.00 | 0.00 | 0.00 | 47 | 1004.7 |
| 20260508204812 | 16 | 338 | 8.0 | 14.5 | 0.00 | 0.00 | 0.00 | 47 | 1004.9 |
| 20260508204301 | 16 | 0 | 9.7 | 17.7 | 0.00 | 0.00 | 0.00 | 46 | 1004.6 |
| 20260508203241 | 17 | 23 | 6.4 | 20.9 | 0.00 | 0.00 | 0.00 | 45 | 1004.6 |
| 20260508202731 | 17 | 0 | 8.0 | 20.9 | 0.00 | 0.00 | 0.00 | 45 | 1004.8 |
| 20260508200649 | 17 | 0 | 11.3 | 17.7 | 0.00 | 0.00 | 0.00 | 43 | 1005.0 |
| 20260508200140 | 17 | 0 | 6.4 | 14.5 | 0.00 | 0.00 | 0.00 | 42 | 1005.0 |
| 20260508195630 | 17 | 23 | 9.7 | 17.7 | 0.00 | 0.00 | 0.00 | 42 | 1004.8 |
| 20260508195120 | 17 | 23 | 11.3 | 22.5 | 0.00 | 0.00 | 0.00 | 41 | 1005.3 |
| 20260508194609 | 17 | 23 | 9.7 | 22.5 | 0.00 | 0.00 | 0.00 | 41 | 1005.1 |
| 20260508194100 | 18 | 23 | 12.9 | 22.5 | 0.00 | 0.00 | 0.00 | 41 | 1005.2 |
| 20260508193048 | 17 | 23 | 8.0 | 24.1 | 0.00 | 0.00 | 0.00 | 41 | 1005.2 |
| 20260508192529 | 17 | 23 | 14.5 | 24.1 | 0.00 | 0.00 | 0.00 | 40 | 1005.5 |
| 20260508192019 | 18 | 90 | 3.2 | 17.7 | 0.00 | 0.00 | 0.00 | 40 | 1005.5 |
| 20260508191516 | 18 | 338 | 6.4 | 17.7 | 0.00 | 0.00 | 0.00 | 39 | 1005.5 |
| 20260508190958 | 18 | 338 | 6.4 | 17.7 | 0.00 | 0.00 | 0.00 | 38 | 1005.7 |
| 20260508190449 | 18 | 338 | 3.2 | 17.7 | 0.00 | 0.00 | 0.00 | 39 | 1005.5 |
| 20260508185939 | 17 | 23 | 6.4 | 17.7 | 0.00 | 0.00 | 0.00 | 40 | 1005.9 |
| 20260508184919 | 18 | 0 | 3.2 | 17.7 | 0.00 | 0.00 | 0.00 | 39 | 1005.6 |
| 20260508184408 | 18 | 0 | 3.2 | 17.7 | 0.00 | 0.00 | 0.00 | 38 | 1005.8 |
| 20260508183859 | 18 | 0 | 8.0 | 17.7 | 0.00 | 0.00 | 0.00 | 39 | 1006.1 |
| 20260508183347 | 18 | 23 | 6.4 | 17.7 | 0.00 | 0.00 | 0.00 | 38 | 1006.4 |
| 20260508182838 | 18 | 0 | 12.9 | 17.7 | 0.00 | 0.00 | 0.00 | 38 | 1006.4 |
| 20260508182328 | 18 | 68 | 3.2 | 12.9 | 0.00 | 0.00 | 0.00 | 37 | 1006.6 |
| 20260508181817 | 18 | 45 | 0.0 | 9.7 | 0.00 | 0.00 | 0.00 | 37 | 1006.4 |
| 20260508180758 | 18 | 45 | 3.2 | 9.7 | 0.00 | 0.00 | 0.00 | 37 | 1006.8 |
| 20260508180247 | 18 | 45 | 3.2 | 12.9 | 0.00 | 0.00 | 0.00 | 37 | 1006.8 |
| 20260508175738 | 18 | 338 | 3.2 | 12.9 | 0.00 | 0.00 | 0.00 | 36 | 1006.8 |
| 20260508175227 | 17 | 90 | 0.0 | 12.9 | 0.00 | 0.00 | 0.00 | 37 | 1007.3 |
| 20260508173656 | 17 | 23 | 0.0 | 11.3 | 0.00 | 0.00 | 0.00 | 38 | 1007.7 |
| 20260508173146 | 18 | 0 | 3.2 | 9.7 | 0.00 | 0.00 | 0.00 | 37 | 1007.8 |
| 20260508172636 | 17 | 338 | 0.0 | 11.3 | 0.00 | 0.00 | 0.00 | 37 | 1008.0 |
| 20260508172127 | 17 | 338 | 0.0 | 12.9 | 0.00 | 0.00 | 0.00 | 37 | 1008.2 |
| 20260508171617 | 17 | 68 | 3.2 | 17.7 | 0.00 | 0.00 | 0.00 | 38 | 1008.2 |
| 20260508171106 | 17 | 23 | 9.7 | 17.7 | 0.00 | 0.00 | 0.00 | 38 | 1008.6 |
| 20260508170046 | 17 | 338 | 3.2 | 6.4 | 0.00 | 0.00 | 0.00 | 37 | 1008.8 |
| 20260508165538 | 17 | 113 | 0.0 | 14.5 | 0.00 | 0.00 | 0.00 | 36 | 1008.9 |
| 20260508164006 | 17 | 23 | 3.2 | 17.7 | 0.00 | 0.00 | 0.00 | 36 | 1009.2 |
| 20260508163455 | 17 | 23 | 0.0 | 12.9 | 0.00 | 0.00 | 0.00 | 37 | 1009.3 |
| 20260508162436 | 17 | 225 | 0.0 | 6.4 | 0.00 | 0.00 | 0.00 | 35 | 1009.9 |
| 20260508161926 | 17 | 68 | 0.0 | 6.4 | 0.00 | 0.00 | 0.00 | 38 | 1009.9 |
| 20260508160905 | 16 | 23 | 0.0 | 12.9 | 0.00 | 0.00 | 0.00 | 38 | 1010.1 |
| 20260508160354 | 16 | 68 | 3.2 | 12.9 | 0.00 | 0.00 | 0.00 | 36 | 1010.1 |
| 20260508155845 | 16 | 0 | 3.2 | 9.7 | 0.00 | 0.00 | 0.00 | 36 | 1010.1 |
| 20260508155334 | 16 | 113 | 0.0 | 9.7 | 0.00 | 0.00 | 0.00 | 37 | 1010.0 |
| 20260508154825 | 17 | 68 | 0.0 | 6.4 | 0.00 | 0.00 | 0.00 | 38 | 1010.4 |
| 20260508154315 | 17 | 113 | 0.0 | 6.4 | 0.00 | 0.00 | 0.00 | 35 | 1010.4 |
| 20260508153804 | 16 | 135 | 1.6 | 6.4 | 0.00 | 0.00 | 0.00 | 39 | 1010.5 |
| 20260508153254 | 16 | 135 | 0.0 | 3.2 | 0.00 | 0.00 | 0.00 | 38 | 1010.7 |
| 20260508152744 | 16 | 225 | 0.0 | 6.4 | 0.00 | 0.00 | 0.00 | 40 | 1011.0 |
| 20260508152233 | 16 | 113 | 0.0 | 6.4 | 0.00 | 0.00 | 0.00 | 39 | 1010.9 |
| 20260508151214 | 15 | 68 | 0.0 | 6.4 | 0.00 | 0.00 | 0.00 | 43 | 1011.3 |
| 20260508150703 | 15 | 158 | 0.0 | 6.4 | 0.00 | 0.00 | 0.00 | 44 | 1011.5 |
| 20260508150153 | 14 | 135 | 1.6 | 11.3 | 0.00 | 0.00 | 0.00 | 45 | 1011.5 |
| 20260508145643 | 14 | 113 | 3.2 | 11.3 | 0.00 | 0.00 | 0.00 | 44 | 1011.5 |
| 20260508145133 | 15 | 180 | 3.2 | 9.7 | 0.00 | 0.00 | 0.00 | 44 | 1011.9 |
| 20260508144624 | 14 | 135 | 0.0 | 6.4 | 0.00 | 0.00 | 0.00 | 46 | 1011.7 |
| 20260508144113 | 14 | 203 | 0.0 | 6.4 | 0.00 | 0.00 | 0.00 | 45 | 1011.6 |
| 20260508143603 | 14 | 158 | 1.6 | 6.4 | 0.00 | 0.00 | 0.00 | 44 | 1011.9 |
| 20260508142542 | 15 | 225 | 1.6 | 6.4 | 0.00 | 0.00 | 0.00 | 47 | 1011.9 |
| 20260508142033 | 15 | 135 | 0.0 | 6.4 | 0.00 | 0.00 | 0.00 | 44 | 1012.1 |
| 20260508141523 | 15 | 135 | 1.6 | 12.9 | 0.00 | 0.00 | 0.00 | 43 | 1011.9 |
| 20260508141012 | 14 | 158 | 1.6 | 12.9 | 0.00 | 0.00 | 0.00 | 44 | 1011.9 |
| 20260508140502 | 13 | 135 | 3.2 | 11.3 | 0.00 | 0.00 | 0.00 | 43 | 1012.1 |
| 20260508135442 | 13 | 135 | 1.6 | 11.3 | 0.00 | 0.00 | 0.00 | 47 | 1011.8 |
| 20260508134932 | 13 | 135 | 0.0 | 14.5 | 0.00 | 0.00 | 0.00 | 49 | 1011.7 |
| 20260508134421 | 13 | 158 | 6.4 | 14.5 | 0.00 | 0.00 | 0.00 | 45 | 1011.4 |
| 20260508133912 | 13 | 158 | 3.2 | 11.3 | 0.00 | 0.00 | 0.00 | 46 | 1011.3 |
| 20260508133401 | 13 | 135 | 3.2 | 14.5 | 0.00 | 0.00 | 0.00 | 48 | 1011.5 |
| 20260508132852 | 13 | 135 | 6.4 | 14.5 | 0.00 | 0.00 | 0.00 | 48 | 1011.4 |
| 20260508132341 | 13 | 135 | 1.6 | 11.3 | 0.00 | 0.00 | 0.00 | 50 | 1011.1 |
| 20260508131831 | 13 | 135 | 3.2 | 11.3 | 0.00 | 0.00 | 0.00 | 49 | 1011.2 |
| 20260508131322 | 13 | 180 | 3.2 | 11.3 | 0.00 | 0.00 | 0.00 | 51 | 1011.1 |
| 20260508130811 | 12 | 158 | 3.2 | 12.9 | 0.00 | 0.00 | 0.00 | 52 | 1011.1 |
| 20260508125751 | 12 | 158 | 3.2 | 14.5 | 0.00 | 0.00 | 0.00 | 56 | 1010.9 |
| 20260508125241 | 12 | 180 | 3.2 | 12.9 | 0.00 | 0.00 | 0.00 | 58 | 1010.6 |
| 20260508124731 | 12 | 135 | 1.6 | 12.9 | 0.00 | 0.00 | 0.00 | 62 | 1010.9 |
| 20260508124220 | 12 | 158 | 0.0 | 11.3 | 0.00 | 0.00 | 0.00 | 63 | 1010.7 |
| 20260508123710 | 11 | 158 | 0.0 | 11.3 | 0.00 | 0.00 | 0.00 | 68 | 1010.4 |
| 20260508122650 | 10 | 158 | 0.0 | 12.9 | 0.00 | 0.00 | 0.00 | 74 | 1010.4 |
| 20260508122139 | 10 | 158 | 1.6 | 6.4 | 0.00 | 0.00 | 0.00 | 77 | 1010.8 |
| 20260508121630 | 10 | 158 | 1.6 | 9.7 | 0.00 | 0.00 | 0.00 | 77 | 1010.3 |
| 20260508121121 | 9 | 135 | 4.8 | 9.7 | 0.00 | 0.00 | 0.00 | 80 | 1010.2 |
| 20260508120613 | 9 | 180 | 3.2 | 9.7 | 0.00 | 0.00 | 0.00 | 79 | 1010.5 |
| 20260508120100 | 8 | 248 | 1.6 | 6.4 | 0.00 | 0.00 | 0.00 | 81 | 1010.3 |
| 20260508115549 | 8 | 180 | 0.0 | 6.4 | 0.00 | 0.00 | 0.00 | 81 | 1010.0 |
| 20260508115039 | 7 | 158 | 0.0 | 17.7 | 0.00 | 0.00 | 0.00 | 82 | 1009.8 |
| 20260508114528 | 7 | 203 | 3.2 | 24.1 | 0.00 | 0.00 | 0.00 | 79 | 1009.8 |
| 20260508114019 | 7 | 203 | 3.2 | 24.1 | 0.00 | 0.00 | 0.00 | 76 | 1009.8 |
| 20260508113509 | 5 | 135 | 3.2 | 6.4 | 0.00 | 0.00 | 0.00 | 92 | 1009.3 |
| 20260508111428 | 4 | 158 | 0.0 | 0.0 | 0.00 | 0.00 | 0.00 | 91 | 1008.5 |
| 20260508110919 | 4 | 180 | 0.0 | 0.0 | 0.00 | 0.00 | 0.00 | 91 | 1008.5 |
| 20260508110408 | 4 | 158 | 0.0 | 0.0 | 0.00 | 0.00 | 0.00 | 91 | 1008.2 |
| 20260508105858 | 4 | 158 | 0.0 | 0.0 | 0.00 | 0.00 | 0.00 | 92 | 1008.1 |
| 20260508105349 | 3 | 135 | 0.0 | 0.0 | 0.00 | 0.00 | 0.00 | 93 | 1007.9 |
| 20260508104837 | 3 | 158 | 0.0 | 0.0 | 0.00 | 0.00 | 0.00 | 93 | 1007.9 |
| 20260508104327 | 3 | 135 | 0.0 | 0.0 | 0.00 | 0.00 | 0.00 | 93 | 1007.8 |
| 20260508103819 | 3 | 180 | 0.0 | 0.0 | 0.00 | 0.00 | 0.00 | 93 | 1007.9 |
| 20260508103308 | 3 | 180 | 0.0 | 0.0 | 0.00 | 0.00 | 0.00 | 94 | 1007.6 |
| 20260508102247 | 3 | 135 | 0.0 | 0.0 | 0.00 | 0.00 | 0.00 | 95 | 1007.5 |
| 20260508101737 | 3 | 158 | 0.0 | 0.0 | 0.00 | 0.00 | 0.00 | 95 | 1007.5 |
| 20260508101228 | 2 | 135 | 0.0 | 0.0 | 0.00 | 0.00 | 0.00 | 94 | 1007.3 |
| 20260508100716 | 3 | 135 | 0.0 | 0.0 | 0.00 | 0.00 | 0.00 | 94 | 1007.2 |
| 20260508100206 | 3 | 135 | 0.0 | 0.0 | 0.00 | 0.00 | 0.00 | 93 | 1007.4 |
| 20260508095657 | 3 | 180 | 0.0 | 0.0 | 0.00 | 0.00 | 0.00 | 94 | 1007.1 |
| 20260508095146 | 3 | 158 | 0.0 | 0.0 | 0.00 | 0.00 | 0.00 | 93 | 1007.2 |
| 20260508093617 | 3 | 158 | 0.0 | 0.0 | 0.00 | 0.00 | 0.00 | 93 | 1006.8 |
| 20260508093108 | 3 | 135 | 0.0 | 0.0 | 0.00 | 0.00 | 0.00 | 94 | 1007.0 |
| 20260508092556 | 3 | 135 | 0.0 | 0.0 | 0.00 | 0.00 | 0.00 | 94 | 1006.8 |
| 20260508091536 | 3 | 158 | 0.0 | 0.0 | 0.00 | 0.00 | 0.00 | 94 | 1006.4 |
| 20260508090516 | 3 | 158 | 0.0 | 0.0 | 0.00 | 0.00 | 0.00 | 94 | 1006.1 |
| 20260508090005 | 3 | 158 | 0.0 | 0.0 | 0.00 | 0.00 | 0.00 | 93 | 1006.1 |
| 20260508085457 | 3 | 158 | 0.0 | 0.0 | 0.00 | 0.00 | 0.00 | 94 | 1006.2 |
| 20260508084947 | 3 | 158 | 0.0 | 0.0 | 0.00 | 0.00 | 0.00 | 93 | 1006.3 |
| 20260508084435 | 3 | 158 | 0.0 | 0.0 | 0.00 | 0.00 | 0.00 | 93 | 1006.0 |
| 20260508083924 | 3 | 158 | 0.0 | 0.0 | 0.00 | 0.00 | 0.00 | 93 | 1006.1 |
| 20260508083415 | 3 | 158 | 0.0 | 0.0 | 0.00 | 0.00 | 0.00 | 93 | 1005.9 |
| 20260508082905 | 3 | 180 | 0.0 | 0.0 | 0.00 | 0.00 | 0.00 | 93 | 1005.9 |
| 20260508082355 | 3 | 158 | 0.0 | 0.0 | 0.00 | 0.00 | 0.00 | 93 | 1005.7 |
| 20260508081845 | 3 | 203 | 0.0 | 0.0 | 0.00 | 0.00 | 0.00 | 93 | 1005.7 |
| 20260508080314 | 4 | 203 | 0.0 | 0.0 | 0.00 | 0.00 | 0.00 | 93 | 1005.7 |